This demonstration page uses our WeatherBlox Daily Observations layout. Learn more.

Left ArrowRight Arrow

Hourly Observations for September 25, 2020

Temp ( °F °C ) Dew Point ( °F °C ) Humidity (%) Winds ( mph kmh ) Pressure ( in mb ) Visibility ( mi km ) Precip ( " mm )
12:59 am 00:59 Mostly Cloudy 64 17.8 60 15.6 87 87 Calm 30.09 1019 10 16 0.00 0.00
1:59 am 01:59 Cloudy 64 17.8 61 16.1 90 90 Calm 30.10 1019 9 14 0.00 0.00
2:59 am 02:59 Cloudy 64 17.8 61 16.1 90 90 Calm 30.09 1019 9 14 0.00 0.00
3:59 am 03:59 Cloudy 64 17.8 61 16.1 90 90 Calm 30.09 1019 9 14 0.00 0.00
4:59 am 04:59 Cloudy 64 17.8 61 16.1 90 90 Calm 30.10 1019 8 13 0.00 0.00
5:59 am 05:59 Mostly Cloudy with Light Rain 63 17.2 61 16.1 93 93 Calm 30.10 1019 6 10 0.00 0.00
6:59 am 06:59 Cloudy 63 17.2 61 16.1 93 93 Calm 30.11 1020 7 11 0.00 0.00
7:59 am 07:59 Cloudy with Mist and Fog 65 18.3 62 16.7 90 90 Calm 30.14 1021 6 10 0.00 0.00
8:59 am 08:59 Cloudy 67 19.4 63 17.2 87 87 Calm 30.14 1021 7 11 0.00 0.00
9:59 am 09:59 Cloudy 68 20 63 17.2 84 84 Calm 30.18 1022 7 11 0.00 0.00
10:59 am 10:59 Cloudy 70 21.1 61 16.1 73 73 N 3 6 30.18 1022 9 14 0.00 0.00
11:59 am 11:59 Cloudy with Light Rain 69 20.6 62 16.7 78 78 ENE 6 9 30.17 1022 8 13 0.01 0.25
12:59 pm 12:59 Cloudy 68 20 62 16.7 81 81 ESE 7 11 30.16 1021 8 13 0.00 0.00
1:59 pm 13:59 Cloudy with Light Rain 69 20.6 61 16.1 76 76 E 8 13 30.14 1021 10 16 0.00 0.00
2:59 pm 14:59 Cloudy with Light Rain 67 19.4 60 15.6 79 79 E 8 13 30.11 1020 8 13 0.00 0.00
3:59 pm 15:59 Cloudy with Light Rain 67 19.4 60 15.6 79 79 E 7 11 30.10 1019 10 16 0.01 0.25
4:59 pm 16:59 Cloudy with Light Rain 67 19.4 62 16.7 84 84 E 9 15 30.09 1019 10 16 0.01 0.25
5:59 pm 17:59 Cloudy with Light Rain 68 20 62 16.7 81 81 E 9 15 30.09 1019 10 16 0.00 0.00
6:59 pm 18:59 Mostly Cloudy 67 19.4 61 16.1 81 81 ESE 7 11 30.07 1018 10 16 0.00 0.00
7:59 pm 19:59 Cloudy 67 19.4 62 16.7 84 84 E 6 9 30.07 1018 10 16 0.00 0.00
8:59 pm 20:59 Cloudy 68 20 63 17.2 84 84 ESE 7 11 30.08 1019 10 16 0.00 0.00
9:59 pm 21:59 Cloudy 69 20.6 64 17.8 84 84 ESE 7 11 30.06 1018 10 16 0.00 0.00
10:59 pm 22:59 Cloudy 69 20.6 65 18.3 87 87 ESE 7 11 30.06 1018 10 16 0.00 0.00
11:59 pm 23:59 Cloudy 70 21.1 65 18.3 84 84 ESE 7 11 30.05 1018 10 16 0.00 0.00

Powered by AerisWeather